{"data":{"norad_id":39189,"epoch":"2026-05-24T18:31:57.819072Z","epoch_age_seconds":87885,"freshness":"FRESH","line1":"1 39189U 13031B   26144.77219698 -.00000024  00000+0  00000+0 0  9999","line2":"2 39189   0.0452 346.0512 0005135  70.2536 303.7435  5.00115261235872","mean_motion":5.00115261,"eccentricity":0.0005135,"inclination_deg":0.0452,"raan_deg":346.0512,"arg_perigee_deg":70.2536,"mean_anomaly_deg":303.7435,"bstar":0,"rev_number":23587,"period_min":287.93362496491,"perigee_km":8058.4778097173,"apogee_km":8073.3118303965,"semimajor_km":14444.031820057,"source":"CELESTRAK","updated_at":"2026-05-25T13:38:14.506994Z"}}